Wind_Speed
20 25 21 18 17 16 15 14 13 12 11 10 10 10 11 11 12 12 11 10 11 9 8 10 10 10 11 10 9 8 7 7 7 7 6 5 4 5 4 7 8 6 6
31 25 21 19 19 15 15 15 12 11 14 12 10 9 8 6 5 4 4 4 3 3 3 3 4 5 6 6 7 9 9 6 4 5 5 3 4 5 6 5 6 6 5
29 24 22 20 18 16 15 14 14 14 11 11 11 11 10 8 7 6 5 5 5 6 6 7 6 6 6 6 5 4 5 7 5 4 4 3 3 5 7 4 4 5 5
27 22 22 21 19 17 15 16 14 12 11 11 9 8 8 6 5 6 5 6 6 7 8 8 8 8 8 7 6 7 6 6 5 5 5 5 4 6 7 6 4 4 5
26 24 22 19 18 17 16 14 13 12 9 7 7 7 8 9 9 9 10 11 11 11 11 11 11 12 12 11 10 9 7 8 7 7 5 5 6 6 6 7 6 5 5
28 24 21 18 18 17 15 14 10 8 7 7 8 10 11 11 11 12 12 12 11 11 11 11 11 11 12 12 12 10 10 9 8 7 6 6 5 7 8 10 10 5 5
27 24 20 21 17 16 14 11 9 9 9 11 12 12 12 12 12 12 11 12 11 11 11 10 11 11 11 12 12 11 12 13 14 12 6 4 4 5 7 7 6 2 6
27 24 22 18 18 15 12 10 9 10 12 13 13 12 12 12 12 11 11 11 11 11 11 11 11 11 11 11 11 11 11 11 15 16 15 14 10 9 9 10 9 8 9
27 27 22 19 16 13 11 10 11 13 13 13 12 11 10 10 11 11 11 11 11 11 11 10 11 11 10 11 11 12 12 12 13 15 14 12 14 12 11 11 11 11 10
26 23 22 19 17 15 14 13 13 13 12 10 9 8 9 9 9 9 10 9 10 11 10 11 10 9 10 11 11 12 12 12 13 14 15 15 16 15 12 13 11 12 10
25 24 22 20 17 16 15 15 13 11 11 10 9 8 8 9 9 9 10 9 10 10 10 11 9 9 9 10 11 11 10 12 10 11 12 13 13 11 14 14 13 12 12
25 23 21 19 19 17 16 14 12 11 10 10 9 8 8 8 9 9 10 10 11 11 11 11 10 9 10 11 11 11 13 13 13 13 13 13 12 10 9 11 12 12 12
27 23 20 19 18 17 15 14 12 11 10 10 8 7 8 8 9 9 10 11 12 12 12 12 11 12 11 11 11 12 12 13 14 14 15 14 12 11 12 13 14 14 13
28 23 22 20 17 15 14 13 12 10 10 9 8 8 7 9 9 10 11 12 12 12 13 13 12 12 11 10 11 11 12 12 13 13 13 13 12 13 13 13 13 13 13
28 25 23 20 17 16 13 12 11 10 10 9 9 8 8 9 9 9 11 11 12 11 13 13 11 11 11 10 10 10 11 10 11 12 11 11 12 12 12 11 12 12 12
28 26 22 19 17 16 14 11 11 11 10 9 9 8 8 8 9 9 10 10 11 11 12 11 12 10 9 10 10 9 8 8 8 10 10 10 10 11 12 10 11 10 10
28 26 22 19 17 16 14 13 11 11 10 9 9 8 8 7 7 8 9 9 9 10 10 9 10 10 7 7 7 7 6 6 6 8 10 11 11 12 12 12 11 11 11
27 26 23 19 17 16 15 13 12 12 10 9 8 7 7 6 6 7 7 8 8 8 7 8 8 9 9 4 3 4 4 4 4 6 7 9 9 10 11 12 12 12 12
27 25 22 20 18 16 15 13 12 12 10 8 7 6 5 5 4 5 5 6 5 6 6 7 7 7 8 6 1 3 3 3 2 2 3 4 6 7 9 11 12 11 11
22 21 21 19 18 17 16 13 12 11 10 8 7 5 4 3 3 3 3 3 4 4 5 6 7 7 7 7 1 2 4 4 3 3 2 0 1 3 5 7 9 10 9
19 19 20 20 19 19 19 16 12 11 9 8 8 6 4 3 2 1 1 2 2 3 5 6 5 5 5 8 3 2 1 5 5 4 5 5 4 3 4 5 7 8 8
22 20 19 20 19 18 16 13 7 10 9 9 8 7 6 4 4 2 1 1 2 4 5 5 5 3 3 6 3 1 2 1 2 6 6 7 7 6 6 6 5 6 5
23 22 20 19 19 18 16 14 10 8 6 9 9 9 7 6 5 4 2 3 4 4 4 4 4 3 2 2 4 0 0 1 4 2 3 5 6 7 8 9 8 8 7
21 20 19 19 18 18 16 13 10 9 7 9 8 9 8 7 5 5 4 5 5 6 7 7 6 5 3 3 2 3 3 2 2 3 2 4 6 7 7 9 11 12 10
19 22 23 21 20 20 18 14 12 9 8 8 8 9 7 6 5 5 4 4 6 8 8 9 8 7 7 6 5 4 4 4 5 4 4 3 6 11 10 14 11 13 13
22 27 23 21 23 20 17 14 14 12 12 10 9 9 7 5 5 4 5 6 7 7 8 8 9 10 10 9 9 9 7 4 3 5 5 4 8 9 10 16 12 12 13
Wind_Direction
168 162 166 158 153 145 135 126 118 107 102 99 98 100 92 89 85 81 79 71 58 65 64 54 51 47 46 43 33 21 22 19 22 30 34 48 42 24 26 23 33 44 48
156 157 162 157 145 140 134 128 121 114 103 92 87 95 92 97 90 81 69 62 48 27 19 21 14 11 22 29 28 24 31 20 358 6 13 36 42 31 14 354 16 24 31
152 154 158 150 141 138 135 130 128 118 109 95 93 84 82 79 68 64 46 32 30 18 17 12 360 349 346 344 341 356 358 352 7 347 347 359 9 10 5 348 10 23 21
150 154 153 151 142 138 135 134 128 116 104 97 96 88 78 75 65 50 43 38 33 33 33 31 24 17 9 351 339 333 330 321 328 335 335 337 329 342 358 340 327 348 349
152 156 153 151 143 143 146 134 123 116 112 106 95 88 77 71 72 67 63 59 57 53 48 43 40 39 39 33 30 20 338 330 317 311 303 311 315 324 335 351 300 294 322
154 154 153 148 147 152 137 128 125 123 117 107 94 87 80 78 70 71 70 61 57 53 45 44 42 40 40 40 39 31 22 10 352 325 301 296 312 326 324 327 323 268 316
152 151 152 150 155 143 138 137 131 121 109 103 97 90 83 78 75 68 64 61 59 54 52 47 42 43 46 43 42 42 41 41 41 33 19 347 349 1 349 3 12 348 326
151 149 150 154 146 145 141 138 130 120 112 107 101 95 85 77 71 66 64 63 61 54 51 46 44 48 46 44 45 44 52 57 61 57 56 62 65 53 46 43 41 37 40
151 149 149 158 151 147 143 136 126 121 116 109 103 100 90 80 74 68 66 61 61 54 51 46 46 50 50 49 51 59 63 65 65 64 58 57 59 54 46 45 47 39 36
156 159 159 157 151 148 138 136 129 126 123 117 105 98 92 84 75 67 61 58 59 56 51 49 53 55 56 58 64 68 71 71 70 68 57 52 54 55 52 48 50 47 44
160 159 157 154 153 147 141 135 130 127 125 122 112 106 97 84 75 66 60 56 58 56 54 53 55 58 57 65 72 74 72 68 61 55 48 48 41 40 40 43 45 45 44
154 155 157 157 155 149 142 136 133 129 124 123 117 112 100 87 75 66 63 59 60 57 58 57 55 60 65 75 80 82 78 74 64 56 42 35 34 36 41 47 50 56 53
160 157 158 156 154 150 145 139 133 130 128 125 121 114 104 93 81 73 68 62 60 58 60 59 57 66 70 77 84 89 84 75 64 58 45 41 48 53 55 51 52 52 52
163 161 158 157 155 146 149 140 133 132 128 128 125 118 108 96 84 78 72 67 61 58 61 60 60 67 72 77 88 92 91 79 71 60 47 55 50 49 48 46 48 47 47
163 162 161 159 159 152 154 144 138 132 127 127 125 120 109 97 87 82 75 69 63 58 60 60 61 71 73 80 94 102 100 84 72 56 58 59 62 54 45 39 34 35 31
167 163 164 165 163 156 153 151 144 133 130 128 125 117 105 97 92 86 79 70 63 56 58 58 61 71 77 83 98 107 97 89 74 61 63 64 62 58 55 48 43 40 33
174 167 166 164 162 159 157 156 148 139 138 137 130 118 106 96 91 86 80 74 66 56 55 57 61 61 74 90 105 106 100 97 77 74 78 73 66 60 57 52 48 44 42
173 169 165 167 164 162 159 158 152 144 143 145 136 126 110 101 95 88 81 74 63 54 49 54 58 59 55 83 117 123 124 113 89 86 82 76 64 58 51 45 41 42 43
175 171 166 166 166 163 159 159 159 151 149 154 150 142 126 107 93 84 75 71 67 55 40 40 40 45 41 41 124 183 182 162 144 123 92 75 64 53 47 39 37 39 44
178 176 167 166 167 163 164 161 164 157 157 163 168 159 146 135 110 87 79 68 56 46 40 35 34 28 26 15 100 198 217 214 212 211 213 250 29 30 27 28 31 32 31
177 177 169 170 172 173 163 166 164 168 166 177 181 181 175 169 167 137 79 50 42 32 23 23 22 16 16 19 32 350 221 223 232 236 240 249 265 299 334 350 7 17 21
177 184 180 181 179 178 177 172 167 167 175 189 195 195 195 200 206 211 241 337 19 18 8 3 4 351 1 25 37 37 7 238 256 251 255 247 247 262 276 300 308 337 347
182 190 190 191 188 183 182 174 160 152 152 186 199 203 203 212 224 235 257 304 321 327 328 324 324 330 345 356 13 30 231 279 314 258 240 236 249 263 269 284 288 296 303
183 198 201 193 194 193 187 183 180 171 171 205 202 203 201 206 225 242 272 288 300 301 292 285 290 297 301 290 304 219 240 232 265 300 272 258 271 272 282 287 287 286 280
184 209 206 202 195 198 193 195 193 188 200 199 193 193 199 209 231 250 263 295 302 295 287 279 274 275 274 267 253 248 244 245 240 245 288 295 292 290 290 290 282 280 270
197 210 204 203 202 198 192 205 206 205 213 195 199 207 206 216 230 247 281 291 291 291 289 282 274 269 266 262 259 254 241 237 221 219 248 283 290 299 302 295 286 280 268
Height
814 820 824 827 829 831 832 834 836 837 837 838 838 839 839 840 840 840 840 840 840 839 840 840 839 839 838 838 838 837 836 836 836 835 834 834 833 833 833 832 831 831 830
811 819 824 827 830 832 833 834 836 837 838 839 839 840 840 841 841 840 840 840 840 839 839 839 838 838 838 838 838 837 837 836 835 835 834 834 834 833 833 833 832 832 831
814 819 824 827 830 832 833 835 836 837 838 839 839 840 840 840 840 840 840 840 839 839 839 838 838 837 837 837 837 837 837 835 834 834 834 833 833 833 833 832 832 831 831
815 821 824 827 830 833 835 835 836 838 839 839 840 840 841 840 840 840 840 840 840 839 839 838 838 837 837 836 836 835 835 834 834 834 834 833 833 833 833 832 832 832 832
817 821 825 828 831 833 835 836 837 838 839 840 840 840 841 842 841 841 841 841 841 841 841 840 839 838 837 837 836 835 834 834 833 833 833 833 833 833 832 832 832 831 831
817 822 827 829 832 833 835 836 838 839 840 840 841 841 842 842 843 842 842 842 842 842 842 841 840 840 838 837 836 835 834 833 832 832 832 833 833 833 833 832 831 831 831
818 822 827 830 832 834 836 837 838 839 841 841 842 843 844 844 844 844 844 843 843 843 843 842 841 841 840 839 837 836 835 834 833 832 831 832 833 833 833 832 831 831 830
819 822 828 830 833 834 836 837 838 840 841 842 843 844 845 845 845 845 845 844 843 843 843 843 842 842 841 839 838 837 836 836 835 834 833 833 833 834 833 832 831 831 831
820 823 827 831 833 835 836 838 839 841 841 842 844 844 845 845 845 846 846 845 844 844 843 843 842 842 841 840 839 838 837 837 837 836 835 836 835 835 834 833 833 833 832
821 824 826 831 833 835 836 839 839 841 842 843 844 845 846 846 847 847 847 846 845 845 844 843 843 842 842 841 840 839 839 839 839 838 838 838 836 835 835 834 834 833 833
822 824 827 829 832 834 836 839 840 842 842 844 845 846 847 847 847 848 848 848 846 845 845 844 844 843 842 841 841 840 840 840 841 840 840 839 839 838 837 836 835 835 834
821 824 826 829 832 833 836 838 841 842 843 844 846 847 847 847 848 848 848 849 847 847 845 845 845 844 843 842 841 841 841 842 842 842 842 841 841 840 839 837 836 835 836
819 823 826 830 832 834 836 838 840 842 844 845 847 848 847 848 848 849 849 849 848 848 847 846 846 845 845 843 843 842 843 843 843 843 843 843 842 841 840 839 838 836 835
818 822 825 829 833 834 837 838 840 842 844 846 847 848 848 848 849 850 850 850 849 849 847 847 847 846 845 845 844 844 844 844 845 845 845 844 843 842 841 840 839 838 837
817 821 825 828 831 833 837 838 840 842 844 846 848 849 849 849 850 850 850 851 850 851 848 848 848 847 846 846 845 845 845 846 846 846 846 845 844 845 843 842 841 839 838
817 820 824 828 830 832 836 839 840 841 844 847 849 850 850 850 850 851 850 851 851 851 849 850 848 848 848 847 847 847 847 847 847 847 847 846 845 846 845 844 843 841 840
816 819 824 827 830 832 835 838 840 841 844 847 849 849 850 850 851 850 850 851 852 852 850 851 849 848 848 847 848 847 848 848 849 848 848 847 847 846 845 844 843 841 840
816 819 822 826 830 832 835 838 840 841 844 847 848 849 849 851 851 850 851 851 851 852 852 851 850 849 848 847 848 848 848 848 849 849 848 847 847 847 847 845 843 842 841
816 819 821 825 829 832 834 837 841 841 843 846 848 848 848 850 851 851 850 850 851 851 852 852 850 849 848 848 848 848 848 848 849 849 848 848 848 847 847 846 844 842 841
817 820 822 825 829 830 834 837 841 841 842 845 847 848 848 849 850 850 850 851 850 850 851 851 851 850 849 848 847 847 847 847 848 848 848 848 847 847 846 845 844 843 841
816 820 821 824 828 830 830 837 838 839 840 844 846 846 848 848 849 850 850 850 850 850 850 850 850 850 850 847 846 846 846 846 846 846 846 846 846 846 846 846 845 843 842
813 819 821 824 827 829 832 834 836 837 838 842 844 845 846 847 848 849 849 850 849 849 849 849 850 850 848 847 846 846 846 847 845 844 844 844 844 844 844 843 843 842 840
810 817 820 823 827 829 831 832 834 835 838 840 842 843 844 846 848 848 848 849 849 848 848 849 848 848 847 846 846 847 845 844 845 842 841 841 842 842 842 842 841 840 839
807 816 820 822 825 829 829 830 832 832 835 840 839 841 843 844 846 848 847 847 847 847 847 847 846 845 845 845 845 845 845 846 845 841 840 839 839 840 840 840 839 839 838
802 813 818 821 822 825 826 827 828 829 834 836 837 840 842 843 845 846 845 845 845 845 845 844 843 843 843 843 844 844 844 844 844 845 840 839 838 837 837 836 836 835 834
804 815 815 816 820 821 820 823 826 827 834 832 835 839 840 841 843 844 844 843 843 842 842 842 841 840 841 841 841 841 842 843 842 843 842 839 838 834 833 833 832 832 832